Weather History for Rickenbacker, OH

Change the Weather History Date:

Monday, April 7, 2014

  Actual Average Record
Temperature  
Mean Temperature 52 °F -  
Max Temperature 57 °F 62 °F 82 °F (2001)
Min Temperature 46 °F 41 °F 23 °F (2007)
Degree Days  
Heating Degree Days 14    
Growing Degree Days 2 (Base 50)    
Moisture  
Dew Point 41 °F    
Average Humidity 68    
Maximum Humidity 88    
Minimum Humidity 40    
Precipitation  
Precipitation 0.00 in - - ()
Sea Level Pressure  
Sea Level Pressure 29.64 in    
Wind  
Wind Speed 7 mph (East)    
Max Wind Speed 24 mph    
Max Gust Speed 37 mph    
Visibility 8 miles    
Events Rain , Thunderstorm    
Averages and records for this station are not official NWS values.
T = Trace of Precipitation, MM = Missing Value Source: NWS Daily Summary

Daily Weather History Graph

Daily Weather History Graph

Search for Another Location

Airport:

Trip Planner

Search our weather history database for the weather conditions in past years. The results will help you decide how hot, cold, wet, or windy it might be!

Date:

Astronomy

Apr. 07, 2014 Rise Set
Actual Time 7:06 AM EDT 8:01 PM EDT
Civil Twilight 6:38 AM EDT 8:29 PM EDT
Nautical Twilight 6:06 AM EDT 9:02 PM EDT
Astronomical Twilight 5:32 AM EDT 9:36 PM EDT
Moon 1:01 PM EDT (4/7) 2:38 AM EDT (4/7)
Length of Visible Light 13h 50m
Length of Day
12h 55m
First Quarter, 53% of the Moon is Illuminated
Apr 7
First Quarter
Apr 15
Full
Apr 22
Last Quarter
Apr 29
New
May 6
First Quarter

Hourly Weather History & Observations

Time (EDT) Temp. Dew Point Humidity Pressure Visibility Wind Dir Wind Speed Gust Speed Precip Events Conditions
12:15 AM 49.1 °F 25.5 °F 40% 29.95 in 10.0 mi NE 5.8 mph - N/A   Clear
12:35 AM 48.6 °F 25.9 °F 41% 29.94 in 10.0 mi ENE 6.9 mph - N/A   Clear
12:55 AM 47.7 °F 26.6 °F 44% 29.94 in 10.0 mi ENE 6.9 mph - N/A   Clear
1:15 AM 47.3 °F 26.8 °F 45% 29.93 in 10.0 mi ENE 5.8 mph - N/A   Clear
1:35 AM 47.1 °F 27.0 °F 46% 29.92 in 10.0 mi ENE 8.1 mph - N/A   Clear
1:55 AM 47.5 °F 27.3 °F 46% 29.91 in 10.0 mi ENE 8.1 mph - N/A   Clear
2:15 AM 48.2 °F 26.6 °F 43% 29.90 in 10.0 mi ENE 8.1 mph - N/A   Clear
2:35 AM 48.9 °F 25.7 °F 40% 29.90 in 10.0 mi ENE 6.9 mph - N/A   Clear
2:55 AM 48.0 °F 26.6 °F 43% 29.88 in 10.0 mi ENE 5.8 mph - N/A   Clear
3:15 AM 47.7 °F 27.0 °F 45% 29.87 in 10.0 mi ENE 4.6 mph - N/A   Clear
3:35 AM 47.8 °F 27.0 °F 44% 29.86 in 10.0 mi ENE 3.5 mph - N/A   Clear
3:55 AM 47.7 °F 26.8 °F 44% 29.85 in 10.0 mi ENE 3.5 mph - N/A   Clear
4:15 AM 47.3 °F 27.3 °F 46% 29.83 in 10.0 mi ENE 5.8 mph - N/A   Clear
4:35 AM 46.6 °F 28.9 °F 50% 29.82 in 10.0 mi NE 6.9 mph - N/A   Clear
4:55 AM 46.6 °F 29.3 °F 51% 29.82 in 10.0 mi NE 6.9 mph - N/A   Clear
5:15 AM 46.6 °F 29.8 °F 52% 29.81 in 10.0 mi NE 5.8 mph - N/A   Clear
5:35 AM 46.6 °F 29.8 °F 52% 29.81 in 10.0 mi ENE 5.8 mph - N/A   Scattered Clouds
5:55 AM 46.8 °F 30.4 °F 53% 29.82 in 10.0 mi ENE 4.6 mph - N/A   Scattered Clouds
6:15 AM 46.9 °F 30.7 °F 53% 29.81 in 10.0 mi ENE 5.8 mph - N/A   Overcast
6:35 AM 47.3 °F 31.6 °F 55% 29.81 in 10.0 mi ESE 4.6 mph - N/A   Overcast
6:55 AM 49.3 °F 32.5 °F 53% 29.79 in 10.0 mi SE 6.9 mph - N/A   Overcast
7:15 AM 52.3 °F 32.9 °F 48% 29.80 in 10.0 mi SE 6.9 mph - N/A   Overcast
7:35 AM 52.7 °F 33.3 °F 48% 29.81 in 10.0 mi ESE 5.8 mph - N/A   Overcast
7:55 AM 52.7 °F 33.6 °F 48% 29.81 in 10.0 mi Calm Calm - N/A   Overcast
8:15 AM 52.5 °F 35.2 °F 52% 29.80 in 10.0 mi SE 4.6 mph - N/A   Overcast
8:35 AM 53.4 °F 36.7 °F 53% 29.79 in 10.0 mi SE 9.2 mph - N/A   Overcast
8:55 AM 54.3 °F 37.6 °F 53% 29.78 in 10.0 mi SE 8.1 mph - N/A   Overcast
9:15 AM 55.0 °F 39.0 °F 55% 29.76 in 10.0 mi SE 8.1 mph - N/A   Overcast
9:35 AM 55.4 °F 40.3 °F 57% 29.75 in 10.0 mi SE 5.8 mph - N/A   Mostly Cloudy
9:55 AM 55.4 °F 40.8 °F 58% 29.73 in 10.0 mi ESE 4.6 mph - N/A   Overcast
10:15 AM 55.2 °F 41.9 °F 61% 29.73 in 10.0 mi SE 5.8 mph - N/A   Overcast
10:35 AM 55.2 °F 42.8 °F 63% 29.73 in 10.0 mi Calm Calm - N/A   Overcast
10:55 AM 55.8 °F 43.7 °F 64% 29.72 in 7.0 mi ENE 4.6 mph - N/A Rain Rain
11:15 AM 54.5 °F 44.6 °F 69% 29.71 in 3.0 mi East 6.9 mph - N/A Rain Rain
11:55 AM 51.1 °F 46.4 °F 84% 29.69 in 2.5 mi ENE 9.2 mph - N/A Rain Rain
12:15 PM 50.9 °F 46.6 °F 85% 29.68 in 2.5 mi NE 12.7 mph - N/A Rain Rain
12:35 PM 50.9 °F 46.8 °F 86% 29.67 in 2.5 mi ENE 10.4 mph - N/A   Drizzle
12:55 PM 51.1 °F 47.1 °F 86% 29.65 in 2.0 mi ENE 10.4 mph - N/A Rain Rain
1:15 PM 51.4 °F 47.5 °F 86% 29.64 in 2.5 mi ENE 10.4 mph - N/A   Light Drizzle
1:35 PM 51.6 °F 47.5 °F 86% 29.61 in 2.5 mi ENE 13.8 mph - N/A   Light Drizzle
1:55 PM 51.1 °F 47.1 °F 86% 29.60 in 4.0 mi NE 11.5 mph - N/A   Light Drizzle
2:15 PM 50.9 °F 46.8 °F 86% 29.60 in 7.0 mi ENE 6.9 mph - N/A Rain , Thunderstorm Light Thunderstorms and Rain
2:35 PM 50.9 °F 47.1 °F 87% 29.58 in 4.0 mi NE 10.4 mph - N/A Rain , Thunderstorm Rain
2:55 PM 51.3 °F 47.3 °F 86% 29.56 in 5.0 mi ENE 10.4 mph - N/A Rain , Thunderstorm Thunderstorms and Rain
3:15 PM 51.3 °F 47.5 °F 87% 29.53 in 5.0 mi East 12.7 mph - N/A Rain Rain
3:35 PM 51.6 °F 47.8 °F 87% 29.53 in 4.0 mi ENE 9.2 mph - N/A Rain Light Rain
3:55 PM 52.3 °F 48.7 °F 88% 29.51 in 5.0 mi East 6.9 mph - N/A Rain Light Rain
4:15 PM 53.4 °F 49.5 °F 86% 29.49 in 7.0 mi East 11.5 mph - N/A   Overcast
4:35 PM 53.8 °F 49.6 °F 86% 29.48 in 7.0 mi ESE 11.5 mph - N/A   Overcast
4:55 PM 53.6 °F 49.3 °F 85% 29.46 in 10.0 mi ESE 9.2 mph - N/A Rain Light Rain
5:15 PM 53.8 °F 49.3 °F 85% 29.45 in 7.0 mi East 8.1 mph - N/A Rain Light Rain
5:35 PM 53.6 °F 49.3 °F 85% 29.43 in 5.0 mi East 8.1 mph - N/A Rain Light Rain
5:55 PM 53.4 °F 49.3 °F 86% 29.42 in 10.0 mi East 8.1 mph - N/A Rain Light Rain
6:15 PM 53.4 °F 49.6 °F 87% 29.40 in 10.0 mi East 5.8 mph - N/A   Overcast
6:35 PM 53.6 °F 49.8 °F 87% 29.40 in 7.0 mi ENE 4.6 mph - N/A Rain Heavy Rain
6:55 PM 53.6 °F 49.8 °F 87% 29.39 in 7.0 mi East 4.6 mph - N/A Rain Heavy Rain
7:15 PM 54.0 °F 50.4 °F 88% 29.39 in 7.0 mi ESE 5.8 mph - N/A Rain Light Rain
7:35 PM 54.3 °F 50.4 °F 86% 29.38 in 10.0 mi Calm Calm - N/A   Overcast
7:55 PM 54.1 °F 50.2 °F 86% 29.36 in 10.0 mi East 3.5 mph - N/A   Overcast
8:15 PM 54.0 °F 50.0 °F 86% 29.35 in 10.0 mi ESE 6.9 mph - N/A Thunderstorm Mostly Cloudy
8:35 PM 54.3 °F 50.4 °F 86% 29.35 in 10.0 mi SE 6.9 mph - N/A Thunderstorm Overcast
8:55 PM 55.2 °F 51.1 °F 86% 29.36 in 10.0 mi South 11.5 mph - N/A Rain , Thunderstorm Heavy Thunderstorms and Rain
9:15 PM 56.1 °F 52.0 °F 86% 29.36 in 7.0 mi SSW 10.4 mph 20.7 mph N/A Rain , Thunderstorm Rain
9:35 PM 56.5 °F 52.2 °F 85% 29.37 in 10.0 mi SSW 12.7 mph - N/A   Overcast
9:55 PM 56.8 °F 52.2 °F 84% 29.38 in 10.0 mi SSW 13.8 mph 19.6 mph N/A   Overcast
10:15 PM 56.8 °F 52.0 °F 84% 29.39 in 10.0 mi SW 12.7 mph 17.3 mph N/A   Overcast
10:35 PM 56.8 °F 51.6 °F 83% 29.39 in 10.0 mi WSW 17.3 mph 23.0 mph N/A   Overcast
10:55 PM 57.0 °F 50.7 °F 79% 29.39 in 10.0 mi SW 13.8 mph 23.0 mph N/A   Overcast
11:15 PM 56.5 °F 49.8 °F 78% 29.39 in 10.0 mi SSW 20.7 mph 25.3 mph N/A   Overcast
11:35 PM 55.9 °F 48.4 °F 76% 29.39 in 10.0 mi SW 23.0 mph 34.5 mph N/A   Overcast
11:55 PM 55.4 °F 46.9 °F 73% 29.40 in 10.0 mi SSW 24.2 mph 36.8 mph N/A   Overcast